Погода в Поньгоме

Россия / Республика Карелия     65°20′42″N   34°24′32″E
темп.,
°C
ветер,
м/с
пор.,
м/с
влажн.,
%
обл.,
%
осадки,
мм/ч
давл.,
гПа
погр.,
м
30 июня, чт
чт3000:00+17з456245 0.0 102022
03:00+15з556732 0.0 102035
06:00+17зсз447051 0.0 102063
09:00+17ссв337777 0.0 102060
12:00+16в328023 0.0 1021122
15:00+15в447838 0.0 1020111
18:00+14в338126 0.0 102074
21:00+16юв22784 0.0 102022
1 июля, пт
пт100:00+16ю447730 0.0 102017
03:00+14юв3380100 0.0 102022
06:00+15св3379100 0.0 102053
09:00+14св458152 0.0 1022133
12:00+14св55757 0.0 1022166
15:00+14всв447510 0.0 1022144
18:00+14в45671 0.0 1021107
21:00+13вюв34760 0.0 102175
2 июля, сб
сб200:00+13юв22905 0.0 102221
03:00+13вюв449099 0.0 102148
06:00+14ююв4585100 0.0 1021112
09:00+15юв4581100 0.1 1021204
12:00+16вюв5677100 0.0 1020266
15:00+15вюв798032 0.2 1019174
18:00+15юв7108281 1.2 1018133
21:00+14юв5888100 2.2 101797
3 июля, вс
вс300:00+15ююв568881 0.0 101750
03:00+16ю5581100 0.0 101645
06:00+18ююз4578100 0.0 101594
09:00+21юз4665100 0.0 1015285
12:00+19зюз7979100 0.1 1016243
15:00+17ююв4594100 2.0 101577
18:00+17ююв6993100 0.9 1014179
21:00+16ююв6998100 15.0 1013118
4 июля, пн
пн400:00+16ю4696100 2.5 101376
03:00+16з339558 2.5 101318
06:00+18зсз339110 0.0 101383
09:00+19ссз337411 0.3 1013251
12:00+20ю1264100 0.0 1013651
15:00+20ю346374 0.0 10121001
18:00+20ююв3461100 0.0 10111086
21:00+18ю588282 0.0 101091